Weather History for Portage Glacier, AK

Change the Weather History Date:

Friday, January 3, 2014

  Actual Average Record
Temperature  
Mean Temperature 32 °F -  
Max Temperature 36 °F - - ()
Min Temperature 27 °F - - ()
Degree Days  
Heating Degree Days 34    
Moisture  
Dew Point 30 °F    
Average Humidity 87    
Maximum Humidity 96    
Minimum Humidity 76    
Precipitation  
Precipitation 0.00 in - - ()
Sea Level Pressure  
Sea Level Pressure 30.24 in    
Wind  
Wind Speed 6 mph (SE)    
Max Wind Speed 13 mph    
Max Gust Speed 22 mph    
Visibility 10 miles    
Events      
T = Trace of Precipitation, MM = Missing Value Source: NWS Daily Summary

Daily Weather History Graph

Daily Weather History Graph

Search for Another Location

Airport:

Trip Planner

Search our weather history database for the weather conditions in past years. The results will help you decide how hot, cold, wet, or windy it might be!

Date:

Astronomy

Jan. 03, 2014 Rise Set
Actual Time 10:03 AM AKST 3:56 PM AKST
Civil Twilight 9:04 AM AKST 4:55 PM AKST
Nautical Twilight 8:07 AM AKST 5:53 PM AKST
Astronomical Twilight 7:14 AM AKST 6:45 PM AKST
Moon 10:36 AM AKST (1/3) 8:24 PM AKST (1/3)
Length of Visible Light 7h 50m
Length of Day
5h 53m
Waxing Crescent, 9% of the Moon is Illuminated
Jan 3
Waxing Crescent
Jan 7
First Quarter
Jan 15
Full
Jan 23
Last Quarter
Jan 30
New

Hourly Weather History & Observations

Time (AKST) Temp. Windchill Dew Point Humidity Pressure Visibility Wind Dir Wind Speed Gust Speed Precip Events Conditions
12:53 AM 28.0 °F 24.2 °F 27.0 °F 96% 30.10 in 10.0 mi ESE 3.5 mph - N/A   Clear
1:53 AM 28.0 °F 22.8 °F 26.1 °F 92% 30.11 in 10.0 mi Variable 4.6 mph - N/A   Clear
2:53 AM 28.0 °F - 26.1 °F 92% 30.13 in 10.0 mi North - - N/A   Clear
3:53 AM 27.0 °F 20.5 °F 26.1 °F 96% 30.16 in 10.0 mi West 5.8 mph - N/A   Partly Cloudy
4:53 AM 30.0 °F 25.2 °F 28.9 °F 96% 30.17 in 10.0 mi Variable 4.6 mph - N/A   Partly Cloudy
5:53 AM 28.0 °F 24.2 °F 27.0 °F 96% 30.19 in 10.0 mi West 3.5 mph - N/A   Partly Cloudy
6:53 AM 33.1 °F 26.1 °F 30.0 °F 89% 30.18 in 10.0 mi East 8.1 mph - N/A   Partly Cloudy
7:53 AM 30.0 °F 26.5 °F 26.1 °F 85% 30.20 in 10.0 mi Variable 3.5 mph - N/A   Partly Cloudy
8:53 AM 34.0 °F 27.2 °F 28.9 °F 82% 30.22 in 10.0 mi ESE 8.1 mph 17.3 mph N/A   Overcast
9:53 AM 36.0 °F 29.0 °F 28.9 °F 76% 30.24 in 10.0 mi ESE 9.2 mph - N/A   Overcast
10:53 AM 36.0 °F 29.0 °F 28.9 °F 76% 30.23 in 10.0 mi ESE 9.2 mph 18.4 mph N/A   Mostly Cloudy
11:53 AM 35.1 °F 26.4 °F 30.0 °F 82% 30.24 in 10.0 mi SE 12.7 mph 20.7 mph N/A   Overcast
12:53 PM 35.1 °F 27.9 °F 30.0 °F 82% 30.27 in 10.0 mi South 9.2 mph 16.1 mph N/A   Overcast
1:39 PM 35.1 °F 28.6 °F 30.9 °F 85% 30.27 in 10.0 mi South 8.1 mph - 0.00 in   Overcast
1:53 PM 35.1 °F 28.6 °F 30.9 °F 85% 30.28 in 10.0 mi SSE 8.1 mph 17.3 mph 0.00 in   Overcast
2:03 PM 35.1 °F 30.1 °F 30.9 °F 85% 30.28 in 10.0 mi Variable 5.8 mph - N/A   Overcast
2:53 PM 35.1 °F 28.6 °F 30.9 °F 85% 30.29 in 10.0 mi SE 8.1 mph - N/A   Overcast
3:53 PM 35.1 °F 31.0 °F 30.9 °F 85% 30.29 in 10.0 mi Variable 4.6 mph - N/A   Overcast
4:53 PM 35.1 °F 30.1 °F 30.9 °F 85% 30.30 in 10.0 mi SE 5.8 mph - N/A   Overcast
5:53 PM 35.1 °F 29.3 °F 30.9 °F 85% 30.30 in 10.0 mi ESE 6.9 mph - N/A   Overcast
6:12 PM 35.1 °F 28.6 °F 30.9 °F 85% 30.30 in 10.0 mi ESE 8.1 mph - N/A   Overcast
6:35 PM 35.1 °F 29.3 °F 30.9 °F 85% 30.30 in 10.0 mi ESE 6.9 mph - N/A   Overcast
6:53 PM 35.1 °F 29.3 °F 30.9 °F 85% 30.30 in 10.0 mi Variable 6.9 mph - N/A   Overcast
7:53 PM 35.1 °F 30.1 °F 30.9 °F 85% 30.30 in 10.0 mi Variable 5.8 mph - N/A   Overcast
8:53 PM 35.1 °F 28.6 °F 30.9 °F 85% 30.29 in 10.0 mi SE 8.1 mph - N/A   Overcast
9:53 PM 35.1 °F 27.4 °F 30.9 °F 85% 30.28 in 10.0 mi SSE 10.4 mph 21.9 mph N/A   Overcast
10:53 PM 35.1 °F 30.1 °F 30.9 °F 85% 30.28 in 10.0 mi Variable 5.8 mph - N/A   Overcast
11:17 PM 35.1 °F 29.3 °F 30.9 °F 85% 30.27 in 9.0 mi Variable 6.9 mph - N/A   Overcast
11:43 PM 35.1 °F 27.4 °F 32.0 °F 89% 30.27 in 9.0 mi SSE 10.4 mph 17.3 mph N/A   Overcast
11:53 PM 34.0 °F 28.0 °F 32.0 °F 92% 30.28 in 9.0 mi Variable 6.9 mph 21.9 mph N/A   Overcast